Voltar ao catálogo

NOAA 16 DEB

AtivoSSO
NORAD 41288·DEBRIS·🇺🇸 United States

Lançado Sep 21, 2000 de Vandenberg Space Force Base

Loading…

Próximas Passagens (próximas 24 horas)

TLE

AtualizadoSource: Space-Track

Época: Sep 13, 2026, 02:23 UTC

1 41288U 00055GQ  26256.09971919  .00004961  00000-0  16211-2 0  9992
2 41288  98.9001   8.0101 0020371 321.7050  38.2689 14.38906261552988

Acompanhe NOAA 16 DEB em tempo real com AllMySat

Download on the App Store